Flag for USA

Past Weather in Newark, New Jersey, USA — Yesterday and Last 2 Weeks

Now
54 °F

Clear.


Feels Like: 52 °F
Forecast: 67 / 47 °F
Wind: 8 mph from North

Location: Newark International Airport
Current Time: Sep 21, 2020 at 12:05:46 am
Latest Report: Sep 20, 2020 at 10:51 pm
Visibility: 10 mi
Pressure30.54 "Hg
Humidity: 49%
Dew Point: 35 °F
Location of NewarkLocation

Past Weather in Newark — Graph

°F

Newark Temperature Yesterday

Maximum temperature yesterday: 64 °F (at 2:51 pm)
Minimum temperature yesterday: 48 °F (at 6:51 am)
Average temperature yesterday: 56 °F

High & Low Weather Summary for the Past Weeks

 TemperatureHumidityPressure
High84 °F (Sep 10, 2:51 pm)97% (Sep 10, 3:51 am)30.54 "Hg (Sep 10, 3:51 am)
Low48 °F (Sep 20, 6:51 am)24% (Sep 19, 4:51 pm)29.90 "Hg (Sep 18, 2:51 am)
Average69 °F66%30.18 "Hg
* Reported Sep 5 9:51 pm — Sep 20 9:51 pm, Newark. Weather by CustomWeather, © 2020

Note: Actual official high and low records may vary slightly from our data, if they occured in-between our weather recording intervals... More about our weather records

Newark Weather History for the Previous 24 Hours

Scroll right to see more
 ConditionsComfort  
Time TempWeatherWind HumidityBarometerVisibility
9:51 pm
Sun, Sep 20
53 °FClear.9 mph48%30.53 "Hg10 mi
7:51 pm57 °FPassing clouds.12 mph39%30.52 "Hg10 mi
6:51 pm61 °FPassing clouds.9 mph30%30.51 "Hg10 mi
5:51 pm62 °FPassing clouds.12 mph27%30.50 "Hg10 mi
4:51 pm64 °FScattered clouds.12 mph25%30.50 "Hg10 mi
3:51 pm63 °FScattered clouds.8 mph26%30.50 "Hg10 mi
2:51 pm64 °FPartly sunny.9 mph24%30.50 "Hg10 mi
1:51 pm63 °FPartly sunny.12 mph27%30.51 "Hg10 mi
12:51 pm61 °FPartly sunny.13 mph26%30.53 "Hg10 mi
11:51 am61 °FPartly sunny.16 mph30%30.54 "Hg10 mi
10:51 am59 °FPartly sunny.14 mph35%30.54 "Hg10 mi
9:51 am57 °FPartly sunny.16 mph37%30.52 "Hg10 mi
8:51 am53 °FPartly sunny.18 mph47%30.50 "Hg10 mi
7:51 am50 °FScattered clouds.17 mph52%30.47 "Hg10 mi
6:51 am48 °FScattered clouds.10 mph56%30.46 "Hg10 mi
5:51 am49 °FPassing clouds.13 mph55%30.44 "Hg10 mi
4:51 am49 °FPassing clouds.14 mph57%30.42 "Hg10 mi
3:51 am50 °FPassing clouds.10 mph57%30.41 "Hg10 mi
2:51 am50 °FClear.12 mph54%30.41 "Hg10 mi
1:51 am49 °FClear.9 mph57%30.40 "Hg10 mi
12:51 am50 °FClear.8 mph52%30.39 "Hg10 mi
Weather by CustomWeather, © 2020

See weather overview